sat.trackr.live / text

‹ back to catalog

STARLINK-34001

NORAD 64272 · 2025-120S

PAYLOAD ACTIVE UNKNOWN

§ Identity

Operator
Country
US
Launch date
2025-06-04
Launch site
AFWTR
Launch vehicle
Mass (kg)
RCS (m²)

Purposes: comms

External: N2YO · Heavens-Above · Gunter

§ Orbital elements

Epoch: 2026-09-20T08:40:02.893440Z

Period
93.85 min
Inclination
53.1592°
Eccentricity
0.0001160
Mean motion
15.34394964 rev/d
Perigee alt
461.9 km
Apogee alt
463.5 km
Semi-major
6,840.9 km
B*
4.3445e-4
RAAN
290.1672°
Arg perigee
78.2421°
Mean anomaly
281.8712°
Rev number
7,365

§ Raw data

STARLINK-340011 64272U 25120S   26263.36114460  .00014328  00000+0  43445-3 0  99952 64272  53.1592 290.1672 0001160  78.2421 281.8712 15.34394964 73655

JSON: /api/v1/satellites/64272 · /tle

For live sub-satellite position, see the globe view (requires WebGL).

§ Visibility from observer

Set your observer location to see the next 7 days of passes ≥ 10°. The values pass through the URL so the page stays shareable.

No JS? Fill the form by hand. The geolocation button needs JavaScript.